Flag for Spain Weather past 2 weeks in Valladolid, Spain

Now
75 °F

Passing clouds.


Feels Like: 78 °F
Forecast: 50 / 76 °F
Wind: 6 mph from North

Location: Valladolid / Villanubla

Current Time: Oct 2, 2014 at 7:12:06 PM

Latest Report: Oct 2, 2014 at 6:30 PM


Visibility: N/A

Pressure: 30.24 "Hg

Humidity: 41%

Dew point: 50 °F

Location of ValladolidLocation

Historic Weather in Valladolid — Graph

°F

Valladolid temperature yesterday

Maximum temperature yesterday: 75 °F (at 4:00 PM)
Minimum temperature yesterday: 50 °F (at 8:30 AM)
Average temperature yesterday: 65 °F

Past Weeks' High & Low Weather Summary

 TemperatureHumidityPressure
High77 °F (Sep 21, 3:30 PM)100% (Sep 18, 7:30 AM)30.36 "Hg (Sep 18, 7:30 AM)
Low45 °F (Sep 25, 7:30 AM)25% (Sep 26, 6:00 PM)29.77 "Hg (Sep 17, 6:00 PM)
Average63 °F68%30.12 "Hg
* Reported Sep 17 6:00 PM — Oct 2 6:00 PM, Valladolid, Weather by CustomWeather, © 2014

Note: Actual official high and low records may vary slightly from our data, if they occured in-between our weather recording intervals... More about our weather records

Advertising

Valladolid weather history for previous 24 hours

 ConditionsComfort  
Time TempWeatherWind HumidityBarometerVisibility
6:00 PM
Oct 2
75 °FPassing clouds.No wind36%30.24 "HgN/A
5:30 PM75 °FPassing clouds.3 mph39%30.24 "HgN/A
5:00 PM77 °FPassing clouds.1 mph36%30.24 "HgN/A
4:30 PM75 °FPassing clouds.2 mph41%30.24 "HgN/A
4:00 PM75 °FPassing clouds.1 mph44%30.24 "HgN/A
3:30 PM73 °FPassing clouds.2 mph47%30.27 "HgN/A
3:00 PM73 °FPassing clouds.1 mph50%30.27 "HgN/A
2:30 PM72 °FPassing clouds.3 mph57%30.27 "HgN/A
2:00 PM70 °FSunny.1 mph60%30.30 "Hg10 mi
1:30 PM68 °FPassing clouds.3 mph69%30.30 "HgN/A
1:00 PM68 °FPassing clouds.3 mph64%30.30 "HgN/A
12:30 PM66 °FPassing clouds.7 mph73%30.30 "HgN/A
12:00 PM63 °FSunny.6 mph77%30.30 "Hg10 mi
11:30 AM61 °FSunny.7 mph83%30.33 "Hg10 mi
11:00 AM59 °FSunny.7 mph88%30.33 "Hg10 mi
10:30 AM59 °FSunny.8 mph88%30.30 "Hg10 mi
10:00 AM57 °FSunny.8 mph88%30.30 "Hg10 mi
9:30 AM55 °FSunny.7 mph94%30.30 "Hg10 mi
9:00 AM55 °FClear.7 mph94%30.30 "Hg10 mi
8:30 AM55 °FClear.7 mph94%30.30 "Hg10 mi
8:00 AM55 °FClear.8 mph94%30.30 "Hg10 mi
7:30 AM55 °FClear.8 mph94%30.30 "Hg10 mi
7:00 AM55 °FClear.9 mph94%30.30 "Hg10 mi
10:00 PM
Oct 1
63 °FClear.10 mph64%30.30 "Hg10 mi
9:30 PM64 °FClear.13 mph60%30.30 "Hg10 mi
9:00 PM66 °FSunny.12 mph49%30.27 "Hg10 mi
8:30 PM66 °FSunny.9 mph52%30.27 "Hg10 mi
8:00 PM70 °FSunny.9 mph46%30.27 "Hg10 mi
7:30 PM72 °FSunny.12 mph44%30.27 "Hg10 mi
7:00 PM73 °FPassing clouds.6 mph41%30.27 "HgN/A
Weather by CustomWeather, © 2014

See weather overviewHow to use our weather pages